Regional Weather Roundup
Issued by NWS Binghamton, NY

Home | Current Version | Previous Version | Text Only | Print | Product List | Glossary On
Versions: 1 2 3 4 5 6 7 8 9 10 11 12 13 14 15 16 17 18 19 20 21 22 23 24 25 26 27 28 29 30 31 32 33 34 35 36 37 38 39 40 41 42 43 44 45 46 47 48
000
ASUS41 KBGM 310510
RWRBGM
RWRBGM
BINGHAMTON REGIONAL WEATHER ROUNDUP
NATIONAL WEATHER SERVICE BINGHAMTON NY
1200 AM EST SAT JAN 31 2015

Note: "fair" indicates few or no clouds below 12,000 feet with no
significant weather and/or obstructions to visibility.

* = Station(s) that does not report precipitation, such as rain,
snow, etc, also no thunder or fog.

!NYZ009-015>018-022>025-036-037-044>046-055>057-062-310600
...CENTRAL NEW YORK...

CITY           SKY/WX    TMP DP  RH WIND       PRES   REMARKS
BINGHAMTON     LGT SNOW   8   2  76 NW18G29   30.06S WCI -11
CORTLAND       LGT SNOW  10   9  92 NW6       30.17R VSB 3/4 WCI   1
DANSVILLE      CLOUDY     9   1  70 NW8G17    30.30S WCI  -3
ELMIRA         CLOUDY     9   0  67 NW8G16    30.23S WCI  -3
ITHACA         NOT AVBL
HAMILTON       CLOUDY     5   1  85 N8G20     30.14  WCI  -8
MONTICELLO     MOCLDY    10   3  72 NW18G33   29.97S WCI  -8
NORWICH        CLOUDY     7   1  78 N8        30.13S HAZE    WCI  -6
ONEONTA        PTCLDY     1  -6  71 NW8G17    30.02R WCI -12
PENN YAN       MIX PCPN   9   0  67 W9G21     30.25R WCI  -4
ROME           CLEAR      0  -8  69 NW12      30.24R WCI -17
SIDNEY         CLOUDY    14   7  73 N5        30.11S HAZE    WCI   6
SYRACUSE       LGT SNOW   5   2  87 N7        30.25R FOG     WCI  -7
$$

!PAZ038>040-043-044-047-048-072-310600
...NORTHEAST PENNSYLVANIA...

CITY           SKY/WX    TMP DP  RH WIND       PRES   REMARKS
HAZLETON       MOCLDY    10   0  61 MISG      30.09S
SCRANTON       CLOUDY    13   1  59 NW23      30.13S WCI  -6
TOWANDA*       PTCLDY    10   0  61 W5        30.23R WCI   2
$$
&&
KEY
WCI = WIND CHILL INDEX
VSB = VISIBILITY
HX  = HEAT INDEX
$$


USA.gov is the U.S. government's official web portal to all federal, state and local government web resources and services.